World > North America > United States > Mississippi > Houston  

Houston, MS Hourly Weather Updates

Feedback E-mail the Weather

Quick Clicks

Houston, MS Weather Maps

°F °C°F °C
Houston Weather Map
UTC Time: 7/20/2024, 16:18
Your Time:

Houston, MS Regional Weather

Expires:202407201700;;994251
ASUS44 KJAN 201610
RWRMS 

MISSISSIPPI HOURLY WEATHER ROUNDUP
NATIONAL WEATHER SERVICE JACKSON MS
1100 AM CDT SAT JUL 20 2024

NOTE: "FAIR: INDICATES FEW OR NO CLOUDS BELOW 12,000 FEET WITH NO
SIGNIFICANT WEATHER AND/OR OBSTRUCTIONS TO VISIBILITY.


MSZ003>006-009-014>017-022>024-029>033-037>039-201700-
NORTHEAST MISSISSIPPI
  
CITY           SKY/WX    TMP DP  RH WIND       PRES   REMARKS
ABERDEEN       CLOUDY    81  75  83 CALM      30.08S                  
COLUMBUS AFB   CLOUDY    80  72  78 CALM      30.03S                  
CORINTH        CLOUDY    77  73  88 VRB5      30.08S                  
GOLDN TRIANGLE CLOUDY    79  73  83 W5        30.07S                  
IUKA           CLOUDY    75  73  93 CALM      30.09S                  
LOUISVILLE     CLOUDY    79  72  78 CALM      30.10S                  
STARKVILLE     PTSUNNY   79  73  83 W5        30.05S                  
TUPELO         CLOUDY    78  71  79 CALM      30.08R                  
$$


SKY/WX - Weather  TMP - Temperature  DP - Dew Point  RH - Humidity
WIND - Wind Direction/Speed PRES - Barometric Pressure VSB - Visibility
WCI - Wind Chill Index E13G22 Wind - East Wind 13 mph/Gusts of 22 mph

Trending Headlines

Trending Entertainment Headlines

Houston Radar Loop

Use the map search tool if you want to place a location marker on the radar map...

Houston Quick Facts

National Two Day Weather Forecast


E-mail the Houston Weather Forecast

Voice your opinion or tell us about page issues...